Date String (YYYY-MM-DD hh:mm:ss) UTC,Instrument flags,absolute air pressure of the measurement (hPa),sample flow rate (lpm),inlet stack bypass flow (lpm),air temperature of the measurement (°C),ambient temperature measured by the external sensor (°C),aerosol sample conditioner tube jacket temperature (°C),OPC LED temperature (°C),internal box temperature (°C),relative humidity of the measurement (%),span deviation,mass concentration of particles derived from Lorenz-Mie calculation of OPC scattering (μg/m³),mass concentration of particles derived from Lorenz-Mie calculation of OPC scattering (μg/m³),mass concentration of particles derived from Lorenz-Mie calculation of OPC scattering (μg/m³)
DateTimeUTC,F1_M11,P_M11,Q1_M11,Q2_M11,T1_M11,T2_M11,T3_M11,T4_M11,T5_M11,U1_M11,ZSPAN_M11,X0_M11,X2_M11,X1_M11
2023-12-14 04:00:00,SystemResetWarning,0836.9,4.99,000.00,018.9,018.1,000.0,027.3,020.0,22.7,0000.8,0024.52,0018.05,0017.39
2023-12-14 04:01:00,SystemResetWarning,0837.0,5.01,000.00,018.9,018.1,000.0,027.3,020.0,22.8,0001.0,0023.76,0018.06,0017.41
2023-12-14 04:02:00,SystemResetWarning,0836.9,5.01,000.00,018.9,018.1,000.0,027.3,020.0,22.8,0000.9,0023.67,0018.11,0017.44
2023-12-14 04:03:00,SystemResetWarning,0836.8,4.99,000.00,018.9,018.1,000.0,027.3,020.0,22.8,0000.8,0023.08,0018.17,0017.49
2023-12-14 04:04:00,SystemResetWarning,0836.8,4.99,000.00,018.8,018.1,000.0,027.3,020.0,22.9,0000.9,0023.08,0018.22,0017.52
2023-12-14 04:05:00,SystemResetWarning,0836.7,5.00,000.00,018.8,018.0,000.0,027.2,020.0,22.9,0000.9,0022.52,0018.21,0017.54
2023-12-14 04:06:00,SystemResetWarning,0836.8,5.00,000.00,018.8,018.0,000.0,027.2,020.0,22.8,0001.0,0022.32,0018.21,0017.57
2023-12-14 04:07:00,SystemResetWarning,0836.8,5.00,000.00,018.8,018.0,000.0,027.2,020.0,22.8,0001.0,0021.56,0018.14,0017.56
2023-12-14 04:08:00,SystemResetWarning,0836.8,5.01,000.00,018.8,018.0,000.0,027.2,020.0,22.8,0001.0,0021.75,0018.13,0017.57
2023-12-14 04:09:00,SystemResetWarning,0836.8,5.00,000.00,018.8,018.0,000.0,027.2,020.0,22.8,0000.8,0021.93,0018.13,0017.58
2023-12-14 04:10:00,SystemResetWarning,0836.8,5.00,000.00,018.8,018.0,000.0,027.2,020.0,22.8,0000.8,0021.90,0018.12,0017.58
2023-12-14 04:11:00,SystemResetWarning,0836.8,4.99,000.00,018.8,018.0,000.0,027.2,020.0,22.9,0000.8,0022.03,0018.12,0017.54
2023-12-14 04:12:00,SystemResetWarning,0836.8,5.00,000.00,018.8,018.0,000.0,027.2,020.0,22.9,0000.6,0022.01,0018.08,0017.51
2023-12-14 04:13:00,SystemResetWarning,0836.8,5.01,000.00,018.8,018.0,000.0,027.2,020.0,22.9,0000.7,0022.13,0018.09,0017.48
2023-12-14 04:14:00,SystemResetWarning,0836.8,5.01,000.00,018.8,018.0,000.0,027.2,020.0,22.9,0000.7,0022.12,0018.05,0017.45
2023-12-14 04:15:00,SystemResetWarning,0836.8,5.00,000.00,018.8,018.0,000.0,027.2,020.0,23.0,0000.5,0022.00,0018.00,0017.42
2023-12-14 04:16:00,SystemResetWarning,0836.7,4.98,000.00,018.8,018.0,000.0,027.2,020.0,23.0,0000.6,0022.28,0018.06,0017.43
2023-12-14 04:17:00,SystemResetWarning,0836.6,4.99,000.00,018.8,018.0,000.0,027.2,020.0,23.0,0000.5,0022.36,0018.12,0017.48
2023-12-14 04:18:00,SystemResetWarning,0836.6,5.00,000.00,018.8,018.0,000.0,027.2,020.0,23.0,0000.4,0022.38,0018.12,0017.49
2023-12-14 04:19:00,SystemResetWarning,0836.6,5.00,000.00,018.8,018.0,000.0,027.2,020.0,23.0,0000.3,0022.34,0018.13,0017.48
2023-12-14 04:20:00,SystemResetWarning,0836.7,5.00,000.00,018.8,017.9,000.0,027.2,020.0,23.0,0000.3,0021.90,0018.10,0017.47
2023-12-14 04:21:00,SystemResetWarning,0836.6,5.00,000.00,018.8,017.9,000.0,027.2,020.0,23.0,0000.1,0021.95,0018.12,0017.47
2023-12-14 04:22:00,SystemResetWarning,0836.6,5.00,000.00,018.8,018.0,000.0,027.2,020.0,23.1,0000.1,0021.95,0018.15,0017.50
2023-12-14 04:23:00,SystemResetWarning,0836.6,5.00,000.00,018.8,018.0,000.0,027.2,020.0,23.1,0000.0,0021.98,0018.17,0017.49
2023-12-14 04:24:00,SystemResetWarning,0836.7,5.00,000.00,018.8,018.0,000.0,027.2,020.0,23.1,-000.2,0021.97,0018.18,0017.50
2023-12-14 04:25:00,SystemResetWarning,0836.7,5.00,000.00,018.8,018.0,000.0,027.2,020.0,23.1,-000.4,0021.99,0018.16,0017.50
2023-12-14 04:26:00,SystemResetWarning,0836.7,5.00,000.00,018.8,018.0,000.0,027.2,020.0,23.2,-000.3,0021.93,0018.20,0017.52
2023-12-14 04:27:00,SystemResetWarning,0836.7,5.00,000.00,018.8,018.0,000.0,027.2,020.0,23.2,-000.3,0022.13,0018.18,0017.50
2023-12-14 04:28:00,SystemResetWarning,0836.7,5.00,000.00,018.8,017.9,000.0,027.2,020.0,23.2,-000.3,0022.13,0018.18,0017.48
2023-12-14 04:29:00,SystemResetWarning,0836.7,5.00,000.00,018.8,017.9,000.0,027.2,020.0,23.2,-000.3,0022.19,0018.19,0017.45
2023-12-14 04:30:00,SystemResetWarning,0836.7,4.99,000.00,018.8,017.9,000.0,027.2,020.0,23.2,-000.1,0022.10,0018.18,0017.44
2023-12-14 04:31:00,SystemResetWarning,0836.7,4.99,000.00,018.8,017.9,000.0,027.2,020.0,23.2,0000.2,0022.25,0018.14,0017.40
2023-12-14 04:32:00,SystemResetWarning,0836.7,5.00,000.00,018.8,017.9,000.0,027.2,020.0,23.2,0000.4,0022.25,0018.12,0017.39
2023-12-14 04:33:00,SystemResetWarning,0836.7,4.99,000.00,018.8,017.9,000.0,027.2,020.0,23.1,0000.3,0022.29,0018.13,0017.38
2023-12-14 04:34:00,SystemResetWarning,0836.7,5.00,000.00,018.8,017.9,000.0,027.2,020.0,23.1,0000.3,0022.28,0018.14,0017.37
2023-12-14 04:35:00,SystemResetWarning,0836.7,5.00,000.00,018.8,017.9,000.0,027.2,020.0,23.1,0000.5,0022.01,0018.03,0017.33
2023-12-14 04:36:00,SystemResetWarning,0836.7,5.01,000.00,018.8,017.9,000.0,027.2,020.0,23.1,0000.7,0021.85,0017.99,0017.30
2023-12-14 04:37:00,SystemResetWarning,0836.7,5.00,000.00,018.8,017.9,000.0,027.2,020.0,23.1,0000.8,0021.78,0017.95,0017.27
2023-12-14 04:38:00,SystemResetWarning,0836.7,5.00,000.00,018.8,017.9,000.0,027.2,020.0,23.1,0000.5,0021.51,0017.93,0017.26
2023-12-14 04:39:00,SystemResetWarning,0836.7,5.00,000.00,018.8,017.9,000.0,027.2,020.0,23.1,0000.4,0021.44,0017.90,0017.25
2023-12-14 04:40:00,SystemResetWarning,0836.7,5.00,000.00,018.8,017.9,000.0,027.2,020.0,23.0,0000.3,0021.46,0017.89,0017.25
2023-12-14 04:41:00,SystemResetWarning,0836.6,5.00,000.00,018.8,017.9,000.0,027.2,020.0,23.0,-000.1,0021.47,0017.88,0017.24
2023-12-14 04:42:00,SystemResetWarning,0836.6,4.99,000.00,018.8,017.9,000.0,027.2,020.0,23.0,-000.1,0021.69,0017.91,0017.25
2023-12-14 04:43:00,SystemResetWarning,0836.6,5.00,000.00,018.8,017.9,000.0,027.2,020.0,23.0,-000.1,0021.66,0017.92,0017.25
2023-12-14 04:44:00,SystemResetWarning,0836.7,5.00,000.00,018.8,017.9,000.0,027.2,020.0,22.9,-000.0,0021.71,0017.89,0017.25
2023-12-14 04:45:00,SystemResetWarning,0836.7,5.00,000.00,018.8,017.9,000.0,027.2,020.0,22.9,-000.1,0021.84,0017.87,0017.26
2023-12-14 04:46:00,SystemResetWarning,0836.7,5.00,000.00,018.8,017.9,000.0,027.2,020.0,22.9,-000.0,0022.03,0017.95,0017.28
2023-12-14 04:47:00,SystemResetWarning,0836.7,5.01,000.00,018.8,017.9,000.0,027.1,020.0,22.9,-000.0,0022.24,0018.06,0017.31
2023-12-14 04:48:00,SystemResetWarning,0836.7,5.01,000.00,018.8,017.9,000.0,027.1,020.0,22.9,-000.2,0022.32,0018.05,0017.29
2023-12-14 04:49:00,SystemResetWarning,0836.7,5.00,000.00,018.8,017.9,000.0,027.2,020.0,22.9,-000.1,0022.22,0018.04,0017.29
2023-12-14 04:50:00,SystemResetWarning,0836.7,4.99,000.00,018.8,017.9,000.0,027.2,020.0,22.9,-000.0,0022.14,0018.03,0017.27
2023-12-14 04:51:00,SystemResetWarning,0836.7,4.99,000.00,018.8,017.9,000.0,027.2,020.0,22.9,0000.0,0022.23,0018.05,0017.27
2023-12-14 04:52:00,SystemResetWarning,0836.6,4.99,000.00,018.8,017.9,000.0,027.1,020.0,22.9,0000.2,0022.83,0018.09,0017.29
2023-12-14 04:53:00,SystemResetWarning,0836.6,5.00,000.00,018.7,017.9,000.0,027.1,020.0,22.9,0000.2,0022.50,0018.10,0017.31
2023-12-14 04:54:00,SystemResetWarning,0836.6,5.00,000.00,018.7,017.9,000.0,027.2,020.0,22.9,0000.1,0022.57,0018.11,0017.32
2023-12-14 04:55:00,SystemResetWarning,0836.6,5.01,000.00,018.7,017.9,000.0,027.2,020.0,22.9,-000.0,0022.64,0018.08,0017.30
2023-12-14 04:56:00,SystemResetWarning,0836.6,5.00,000.00,018.7,017.9,000.0,027.2,020.0,22.9,0000.1,0022.85,0018.07,0017.29
2023-12-14 04:57:00,SystemResetWarning,0836.6,5.00,000.00,018.7,017.9,000.0,027.2,020.0,22.9,0000.0,0023.18,0018.05,0017.29
2023-12-14 04:58:00,SystemResetWarning,0836.6,5.00,000.00,018.7,017.9,000.0,027.2,020.0,22.9,-000.1,0023.07,0017.95,0017.28
2023-12-14 04:59:00,SystemResetWarning,0836.7,5.00,000.00,018.7,017.9,000.0,027.1,020.0,22.9,0000.2,0022.94,0017.92,0017.28
